Location: P�rn�nmaa
(61.1833°N, 23.0000°E)
Time: 16:43:07
(UTC+00:00)

PSLV R/B - Pass Details

Date: 08 December 2019
Orbit: 567 x 600 km, 98.1° (Epoch: 22 January)

Event Time Altitude Azimuth Distance (km) Brightness Sun altitude
Exits shadow 15:28:14 16° 31° (NNE) 1,572 5.7 -13.8°
Maximum altitude 15:31:19 46° 100° (E) 809 4.3 -14.2°
Drops below altitude 10° 15:35:19 10° 174° (S) 1,912 6.8 -14.6°
Sets 15:37:32 0° 181° (S) 2,802 7.7 -14.9°
